Weather History for Corpus Christi NAS, TX

Change the Weather History Date:

Monday, July 29, 2013

  Actual Average Record
Temperature  
Mean Temperature 84 °F -  
Max Temperature 91 °F 89 °F 93 °F (1996)
Min Temperature 80 °F 76 °F 77 °F (1999)
Cooling Degree Days 20    
Growing Degree Days 34 (Base 50)    
Moisture  
Dew Point 78 °F    
Average Humidity 83    
Maximum Humidity 94    
Minimum Humidity 65    
Precipitation  
Precipitation 0.00 in - - ()
Sea Level Pressure  
Sea Level Pressure 29.98 in    
Wind  
Wind Speed 16 mph (SSE)    
Max Wind Speed 25 mph    
Max Gust Speed 32 mph    
Visibility 9 miles    
Events      
Averages and records for this station are not official NWS values.
T = Trace of Precipitation, MM = Missing Value Source: NWS Daily Summary

Daily Weather History Graph

Daily Weather History Graph

Search for Another Location

Airport:

Trip Planner

Search our weather history database for the weather conditions in past years. The results will help you decide how hot, cold, wet, or windy it might be!

Date:

Astronomy

Jul. 29, 2013 Rise Set
Actual Time 6:50 AM CDT 8:20 PM CDT
Civil Twilight 6:25 AM CDT 8:45 PM CDT
Nautical Twilight 5:55 AM CDT 9:15 PM CDT
Astronomical Twilight 5:23 AM CDT 9:47 PM CDT
Moon 12:25 AM CDT 1:48 PM CDT
Length of Visible Light 14h 20m
Length of Day
13h 29m
Waning Gibbous, 50% of the Moon is Illuminated
Jul 29
Waning Gibbous
Jul 29
Last Quarter
Aug 6
New
Aug 14
First Quarter
Aug 20
Full

Hourly Weather History & Observations

Time (CDT) Temp. Heat Index Dew Point Humidity Pressure Visibility Wind Dir Wind Speed Gust Speed Precip Events Conditions
12:56 AM 82.0 °F 91.6 °F 79.0 °F 90% 29.93 in 10.0 mi SSE 15.0 mph 23.0 mph N/A   Partly Cloudy
1:56 AM 81.0 °F 89.2 °F 79.0 °F 94% 29.94 in 10.0 mi South 17.3 mph 24.2 mph N/A   Partly Cloudy
2:40 AM 80.6 °F 88.1 °F 78.8 °F 94% 29.94 in 9.0 mi SSE 13.8 mph 21.9 mph N/A   Mostly Cloudy
2:56 AM 81.0 °F 89.2 °F 79.0 °F 94% 29.94 in 9.0 mi SSE 16.1 mph 23.0 mph N/A   Mostly Cloudy
3:56 AM 81.0 °F 88.6 °F 78.1 °F 91% 29.94 in 10.0 mi South 13.8 mph - N/A   Overcast
4:56 AM 81.0 °F 88.6 °F 78.1 °F 91% 29.95 in 9.0 mi South 12.7 mph - N/A   Mostly Cloudy
5:10 AM 80.6 °F 88.1 °F 78.8 °F 94% 29.95 in 9.0 mi South 11.5 mph - N/A   Scattered Clouds
5:56 AM 80.1 °F 86.4 °F 78.1 °F 94% 29.95 in 9.0 mi SSE 11.5 mph - N/A   Partly Cloudy
6:14 AM 80.6 °F 88.1 °F 78.8 °F 94% 29.96 in 9.0 mi SSE 11.5 mph - N/A   Mostly Cloudy
6:37 AM 80.6 °F 88.1 °F 78.8 °F 94% 29.96 in 9.0 mi SSE 11.5 mph - N/A   Scattered Clouds
6:56 AM 80.1 °F 86.4 °F 78.1 °F 94% 29.96 in 7.0 mi SSE 11.5 mph - N/A   Scattered Clouds
7:56 AM 81.0 °F 88.6 °F 78.1 °F 91% 29.98 in 7.0 mi South 13.8 mph - N/A   Scattered Clouds
8:56 AM 84.0 °F 94.8 °F 78.1 °F 82% 30.00 in 7.0 mi South 18.4 mph 21.9 mph N/A   Scattered Clouds
9:56 AM 86.0 °F 96.9 °F 77.0 °F 74% 30.01 in 7.0 mi SSE 16.1 mph - N/A   Scattered Clouds
10:56 AM 88.0 °F 100.2 °F 77.0 °F 70% 30.02 in 10.0 mi SSE 18.4 mph 26.5 mph N/A   Scattered Clouds
11:56 AM 89.1 °F 101.4 °F 77.0 °F 67% 30.02 in 10.0 mi SSE 17.3 mph 28.8 mph N/A   Scattered Clouds
12:56 PM 89.1 °F 100.2 °F 75.9 °F 65% 30.02 in 10.0 mi SSE 23.0 mph 29.9 mph N/A   Scattered Clouds
1:56 PM 89.1 °F 100.2 °F 75.9 °F 65% 30.01 in 10.0 mi SSE 21.9 mph 32.2 mph N/A   Scattered Clouds
2:56 PM 89.1 °F 100.2 °F 75.9 °F 65% 30.00 in 10.0 mi SE 24.2 mph 31.1 mph N/A   Scattered Clouds
3:56 PM 89.1 °F 100.2 °F 75.9 °F 65% 29.99 in 10.0 mi SSE 25.3 mph 31.1 mph N/A   Scattered Clouds
4:56 PM 88.0 °F 98.5 °F 75.9 °F 67% 29.99 in 10.0 mi SE 24.2 mph 31.1 mph N/A   Scattered Clouds
5:56 PM 87.1 °F 97.3 °F 75.9 °F 69% 29.99 in 10.0 mi SE 19.6 mph 31.1 mph N/A   Scattered Clouds
6:56 PM 84.9 °F 95.3 °F 77.0 °F 77% 29.98 in 10.0 mi SE 23.0 mph 31.1 mph N/A   Scattered Clouds
7:56 PM 82.9 °F 91.8 °F 77.0 °F 82% 29.99 in 10.0 mi SE 19.6 mph 24.2 mph N/A   Scattered Clouds
8:56 PM 82.0 °F 91.0 °F 78.1 °F 88% 29.99 in 10.0 mi SE 18.4 mph 25.3 mph N/A   Scattered Clouds
9:56 PM 82.0 °F 91.0 °F 78.1 °F 88% 30.01 in 10.0 mi SSE 17.3 mph - N/A   Partly Cloudy
10:56 PM 82.0 °F 91.0 °F 78.1 °F 88% 30.04 in 10.0 mi SSE 16.1 mph 23.0 mph N/A   Clear
11:56 PM 82.0 °F 91.0 °F 78.1 °F 88% 30.05 in 10.0 mi SSE 16.1 mph - N/A   Partly Cloudy